| time (UTC) | temp F | wind direction | speed knots | gust knots | rain 1hr in | rain 24hr in | rain mn in | humidity % | barometer mb |
| 20260507040527 | 58 | 278 | 2.6 | 4.3 | 0.00 | 0.14 | 0.00 | 100 | 1006.8 |
| 20260507035528 | 59 | 251 | 0.9 | 2.6 | 0.00 | 0.14 | 0.14 | 99 | 1007.0 |
| 20260507034528 | 59 | 261 | 1.7 | 3.5 | 0.00 | 0.14 | 0.14 | 99 | 1006.7 |
| 20260507033529 | 59 | 255 | 1.7 | 2.6 | 0.00 | 0.14 | 0.14 | 99 | 1006.6 |
| 20260507032530 | 59 | 233 | 0.9 | 1.7 | 0.00 | 0.14 | 0.14 | 100 | 1006.6 |
| 20260507031548 | 59 | 265 | 1.7 | 3.5 | 0.00 | 0.14 | 0.14 | 99 | 1006.3 |
| 20260507030528 | 59 | 236 | 1.7 | 1.7 | 0.00 | 0.14 | 0.14 | 99 | 1006.2 |
| 20260507025548 | 59 | 197 | 1.7 | 2.6 | 0.00 | 0.14 | 0.14 | 99 | 1005.9 |
| 20260507024529 | 59 | 208 | 0.9 | 2.6 | 0.00 | 0.14 | 0.14 | 99 | 1005.9 |
| 20260507023529 | 59 | 209 | 1.7 | 2.6 | 0.00 | 0.14 | 0.14 | 99 | 1006.0 |
| 20260507022549 | 59 | 171 | 1.7 | 3.5 | 0.00 | 0.14 | 0.14 | 99 | 1006.1 |
| 20260507021520 | 59 | 244 | 1.7 | 4.3 | 0.00 | 0.14 | 0.14 | 99 | 1006.0 |
| 20260507020532 | 59 | 251 | 1.7 | 3.5 | 0.00 | 0.14 | 0.14 | 99 | 1006.0 |
| 20260507015520 | 59 | 259 | 1.7 | 5.2 | 0.00 | 0.14 | 0.14 | 99 | 1006.0 |
| 20260507014528 | 59 | 190 | 1.7 | 3.5 | 0.00 | 0.14 | 0.14 | 99 | 1006.0 |
| 20260507013529 | 59 | 155 | 1.7 | 2.6 | 0.00 | 0.14 | 0.14 | 99 | 1006.0 |
| 20260507012550 | 59 | 140 | 1.7 | 3.5 | 0.00 | 0.14 | 0.14 | 99 | 1006.1 |
| 20260507011524 | 59 | 105 | 1.7 | 5.2 | 0.00 | 0.14 | 0.14 | 99 | 1006.2 |
| 20260507010521 | 59 | 237 | 1.7 | 4.3 | 0.00 | 0.14 | 0.14 | 99 | 1006.2 |
| 20260507005521 | 59 | 252 | 1.7 | 4.3 | 0.00 | 0.14 | 0.14 | 99 | 1006.2 |
| 20260507004550 | 59 | 204 | 1.7 | 3.5 | 0.00 | 0.14 | 0.14 | 99 | 1006.3 |
| 20260507003521 | 59 | 114 | 1.7 | 4.3 | 0.00 | 0.14 | 0.14 | 99 | 1006.3 |
| 20260507002518 | 59 | 127 | 1.7 | 6.1 | 0.00 | 0.14 | 0.14 | 100 | 1006.2 |
| 20260507001521 | 59 | 164 | 1.7 | 3.5 | 0.01 | 0.14 | 0.14 | 100 | 1006.3 |
| 20260507000520 | 59 | 228 | 0.9 | 3.5 | 0.04 | 0.14 | 0.14 | 99 | 1006.1 |
| 20260506235519 | 59 | 141 | 1.7 | 6.1 | 0.04 | 0.14 | 0.14 | 100 | 1006.0 |
| 20260506234519 | 59 | 127 | 1.7 | 7.0 | 0.04 | 0.14 | 0.14 | 100 | 1005.9 |
| 20260506233518 | 59 | 150 | 1.7 | 7.0 | 0.04 | 0.14 | 0.14 | 100 | 1005.9 |
| 20260506232519 | 59 | 172 | 0.9 | 3.5 | 0.04 | 0.14 | 0.14 | 99 | 1005.9 |
| 20260506231520 | 59 | 147 | 1.7 | 3.5 | 0.04 | 0.14 | 0.14 | 99 | 1005.9 |
| 20260506230519 | 59 | 168 | 1.7 | 5.2 | 0.01 | 0.11 | 0.11 | 99 | 1006.0 |
| 20260506225516 | 59 | 186 | 1.7 | 4.3 | 0.00 | 0.10 | 0.10 | 99 | 1006.0 |
| 20260506224537 | 59 | 241 | 1.7 | 2.6 | 0.00 | 0.10 | 0.10 | 99 | 1006.1 |
| 20260506223519 | 60 | 168 | 1.7 | 4.3 | 0.00 | 0.10 | 0.10 | 98 | 1006.1 |
| 20260506222522 | 60 | 138 | 1.7 | 6.1 | 0.00 | 0.10 | 0.10 | 98 | 1006.1 |
| 20260506221517 | 60 | 143 | 2.6 | 7.8 | 0.00 | 0.10 | 0.10 | 98 | 1006.2 |
| 20260506220538 | 60 | 137 | 1.7 | 7.8 | 0.00 | 0.10 | 0.10 | 98 | 1006.4 |
| 20260506215521 | 60 | 146 | 1.7 | 4.3 | 0.00 | 0.10 | 0.10 | 97 | 1006.3 |
| 20260506214519 | 60 | 189 | 1.7 | 3.5 | 0.00 | 0.10 | 0.10 | 96 | 1006.5 |
| 20260506213517 | 60 | 251 | 2.6 | 8.7 | 0.01 | 0.10 | 0.10 | 96 | 1006.6 |
| 20260506212538 | 60 | 254 | 1.7 | 7.0 | 0.01 | 0.10 | 0.10 | 96 | 1006.7 |
| 20260506211518 | 60 | 274 | 1.7 | 6.1 | 0.02 | 0.10 | 0.10 | 96 | 1006.8 |
| 20260506210518 | 60 | 162 | 1.7 | 4.3 | 0.02 | 0.10 | 0.10 | 96 | 1006.8 |
| 20260506205521 | 60 | 282 | 2.6 | 7.0 | 0.02 | 0.10 | 0.10 | 95 | 1006.8 |
| 20260506204518 | 61 | 99 | 0.9 | 4.3 | 0.02 | 0.10 | 0.10 | 95 | 1007.0 |
| 20260506203518 | 61 | 235 | 1.7 | 4.3 | 0.03 | 0.10 | 0.10 | 95 | 1007.2 |
| 20260506202538 | 61 | 264 | 2.6 | 6.1 | 0.04 | 0.09 | 0.09 | 95 | 1007.1 |
| 20260506201518 | 61 | 129 | 1.7 | 5.2 | 0.04 | 0.08 | 0.08 | 95 | 1007.1 |
| 20260506200518 | 61 | 248 | 1.7 | 7.0 | 0.04 | 0.08 | 0.08 | 94 | 1007.1 |
| 20260506195518 | 61 | 234 | 2.6 | 7.0 | 0.05 | 0.08 | 0.08 | 93 | 1007.1 |
| 20260506194519 | 62 | 207 | 1.7 | 6.1 | 0.06 | 0.08 | 0.08 | 91 | 1007.2 |
| 20260506193519 | 63 | 273 | 3.5 | 7.8 | 0.05 | 0.06 | 0.06 | 88 | 1007.2 |
| 20260506192537 | 64 | 134 | 2.6 | 8.7 | 0.05 | 0.05 | 0.05 | 87 | 1007.3 |
| 20260506191519 | 64 | 230 | 0.9 | 6.1 | 0.05 | 0.05 | 0.05 | 85 | 1007.2 |
| 20260506190520 | 65 | 248 | 1.7 | 5.2 | 0.04 | 0.04 | 0.04 | 81 | 1007.3 |
| 20260506185540 | 67 | 164 | 2.6 | 7.8 | 0.03 | 0.03 | 0.03 | 76 | 1007.4 |
| 20260506184537 | 68 | 258 | 3.5 | 7.0 | 0.02 | 0.02 | 0.02 | 73 | 1007.5 |
| 20260506183517 | 69 | 258 | 2.6 | 7.8 | 0.02 | 0.02 | 0.02 | 70 | 1007.5 |
| 20260506182520 | 70 | 168 | 3.5 | 10.4 | 0.01 | 0.01 | 0.01 | 67 | 1007.5 |
| 20260506181520 | 71 | 250 | 1.7 | 6.1 | 0.00 | 0.00 | 0.00 | 63 | 1007.4 |
| 20260506180520 | 71 | 137 | 3.5 | 8.7 | 0.00 | 0.00 | 0.00 | 61 | 1007.4 |
| 20260506175537 | 71 | 153 | 4.3 | 9.6 | 0.00 | 0.00 | 0.00 | 60 | 1007.5 |
| 20260506174517 | 72 | 198 | 3.5 | 7.0 | 0.00 | 0.00 | 0.00 | 59 | 1007.5 |
| 20260506173521 | 72 | 138 | 2.6 | 8.7 | 0.00 | 0.00 | 0.00 | 59 | 1007.5 |
| 20260506172517 | 72 | 185 | 4.3 | 8.7 | 0.00 | 0.00 | 0.00 | 59 | 1007.7 |
| 20260506171519 | 73 | 210 | 3.5 | 9.6 | 0.00 | 0.00 | 0.00 | 58 | 1007.8 |
| 20260506170518 | 73 | 213 | 2.6 | 7.0 | 0.00 | 0.00 | 0.00 | 58 | 1007.6 |
| 20260506165538 | 72 | 197 | 3.5 | 10.4 | 0.00 | 0.00 | 0.00 | 59 | 1007.8 |
| 20260506164518 | 71 | 234 | 3.5 | 8.7 | 0.00 | 0.00 | 0.00 | 60 | 1007.9 |
| 20260506163518 | 71 | 249 | 3.5 | 7.0 | 0.00 | 0.00 | 0.00 | 61 | 1008.1 |
| 20260506162519 | 71 | 253 | 3.5 | 10.4 | 0.00 | 0.00 | 0.00 | 62 | 1008.2 |
| 20260506161519 | 71 | 238 | 3.5 | 7.0 | 0.00 | 0.00 | 0.00 | 62 | 1008.4 |
| 20260506160539 | 71 | 164 | 4.3 | 10.4 | 0.00 | 0.00 | 0.00 | 62 | 1008.6 |
| 20260506155539 | 71 | 209 | 2.6 | 6.1 | 0.00 | 0.00 | 0.00 | 62 | 1008.7 |
| 20260506154519 | 71 | 266 | 3.5 | 7.0 | 0.00 | 0.00 | 0.00 | 62 | 1008.9 |
| 20260506153519 | 71 | 167 | 4.3 | 11.3 | 0.00 | 0.00 | 0.00 | 62 | 1009.0 |
| 20260506152537 | 71 | 188 | 4.3 | 11.3 | 0.00 | 0.00 | 0.00 | 62 | 1009.2 |
| 20260506151521 | 71 | 207 | 3.5 | 10.4 | 0.00 | 0.00 | 0.00 | 63 | 1009.2 |
| 20260506150540 | 71 | 135 | 3.5 | 7.8 | 0.00 | 0.00 | 0.00 | 63 | 1009.2 |
| 20260506145519 | 70 | 212 | 2.6 | 7.0 | 0.00 | 0.00 | 0.00 | 65 | 1009.4 |
| 20260506144517 | 70 | 198 | 3.5 | 9.6 | 0.00 | 0.00 | 0.00 | 66 | 1009.4 |
| 20260506143517 | 70 | 129 | 2.6 | 5.2 | 0.00 | 0.00 | 0.00 | 67 | 1009.3 |
| 20260506142521 | 69 | 156 | 2.6 | 7.8 | 0.00 | 0.00 | 0.00 | 68 | 1009.3 |
| 20260506141520 | 69 | 126 | 2.6 | 6.1 | 0.00 | 0.00 | 0.00 | 70 | 1009.2 |
| 20260506140539 | 68 | 241 | 2.6 | 7.0 | 0.00 | 0.00 | 0.00 | 70 | 1009.3 |
| 20260506135539 | 68 | 244 | 2.6 | 7.8 | 0.00 | 0.00 | 0.00 | 71 | 1009.4 |
| 20260506134517 | 67 | 143 | 1.7 | 6.1 | 0.00 | 0.00 | 0.00 | 73 | 1009.4 |
| 20260506133538 | 67 | 119 | 2.6 | 7.0 | 0.00 | 0.00 | 0.00 | 74 | 1009.7 |
| 20260506132518 | 66 | 211 | 1.7 | 7.0 | 0.00 | 0.00 | 0.00 | 75 | 1010.0 |
| 20260506131518 | 66 | 219 | 1.7 | 5.2 | 0.00 | 0.00 | 0.00 | 76 | 1010.0 |
| 20260506130519 | 65 | 158 | 2.6 | 6.1 | 0.00 | 0.00 | 0.00 | 76 | 1010.0 |
| 20260506125518 | 65 | 215 | 2.6 | 5.2 | 0.00 | 0.00 | 0.00 | 77 | 1009.9 |
| 20260506124518 | 65 | 133 | 2.6 | 7.0 | 0.00 | 0.00 | 0.00 | 77 | 1009.9 |
| 20260506123518 | 65 | 187 | 2.6 | 6.1 | 0.00 | 0.00 | 0.00 | 77 | 1010.0 |
| 20260506122518 | 63 | 133 | 1.7 | 4.3 | 0.00 | 0.00 | 0.00 | 80 | 1010.1 |
| 20260506121519 | 63 | 266 | 1.7 | 5.2 | 0.00 | 0.00 | 0.00 | 79 | 1010.2 |
| 20260506120525 | 63 | 136 | 1.7 | 2.6 | 0.00 | 0.00 | 0.00 | 80 | 1010.0 |
| 20260506115526 | 62 | 117 | 1.7 | 3.5 | 0.00 | 0.00 | 0.00 | 81 | 1010.2 |
| 20260506114519 | 62 | 138 | 1.7 | 7.0 | 0.00 | 0.00 | 0.00 | 81 | 1010.3 |
| 20260506113525 | 62 | 239 | 1.7 | 4.3 | 0.00 | 0.00 | 0.00 | 81 | 1010.5 |
| 20260506112520 | 62 | 181 | 2.6 | 5.2 | 0.00 | 0.00 | 0.00 | 81 | 1010.7 |
| 20260506111525 | 62 | 112 | 1.7 | 3.5 | 0.00 | 0.00 | 0.00 | 81 | 1010.3 |
| 20260506110525 | 61 | 116 | 1.7 | 3.5 | 0.00 | 0.00 | 0.00 | 82 | 1010.4 |
| 20260506105525 | 61 | 256 | 1.7 | 4.3 | 0.00 | 0.00 | 0.00 | 83 | 1010.4 |
| 20260506104525 | 60 | 275 | 1.7 | 4.3 | 0.00 | 0.00 | 0.00 | 84 | 1010.4 |
| 20260506103527 | 60 | 138 | 1.7 | 3.5 | 0.00 | 0.00 | 0.00 | 84 | 1010.4 |
| 20260506102525 | 60 | 230 | 1.7 | 3.5 | 0.00 | 0.00 | 0.00 | 83 | 1010.5 |
| 20260506101526 | 60 | 97 | 1.7 | 3.5 | 0.00 | 0.00 | 0.00 | 83 | 1010.4 |
| 20260506100528 | 60 | 254 | 1.7 | 2.6 | 0.00 | 0.00 | 0.00 | 83 | 1010.3 |
| 20260506095526 | 60 | 132 | 1.7 | 4.3 | 0.00 | 0.00 | 0.00 | 83 | 1010.4 |
| 20260506094526 | 60 | 133 | 1.7 | 3.5 | 0.00 | 0.00 | 0.00 | 84 | 1010.1 |
| 20260506093526 | 60 | 246 | 1.7 | 2.6 | 0.00 | 0.00 | 0.00 | 84 | 1010.2 |
| 20260506092526 | 60 | 259 | 0.9 | 2.6 | 0.00 | 0.00 | 0.00 | 83 | 1010.3 |
| 20260506091650 | 60 | 275 | 1.7 | 3.5 | 0.00 | 0.00 | 0.00 | 82 | 1010.2 |
| 20260506090528 | 60 | 107 | 0.9 | 4.3 | 0.00 | 0.00 | 0.00 | 82 | 1010.3 |
| 20260506085526 | 61 | 290 | 1.7 | 4.3 | 0.00 | 0.00 | 0.00 | 81 | 1010.4 |
| 20260506084521 | 61 | 203 | 1.7 | 5.2 | 0.00 | 0.00 | 0.00 | 80 | 1010.4 |
| 20260506083522 | 61 | 181 | 1.7 | 5.2 | 0.00 | 0.00 | 0.00 | 80 | 1010.4 |
| 20260506082527 | 61 | 196 | 2.6 | 4.3 | 0.00 | 0.00 | 0.00 | 80 | 1010.3 |
| 20260506081521 | 61 | 122 | 2.6 | 4.3 | 0.00 | 0.00 | 0.00 | 79 | 1010.3 |
| 20260506080530 | 62 | 194 | 1.7 | 2.6 | 0.00 | 0.00 | 0.00 | 79 | 1010.3 |
| 20260506073523 | 62 | 232 | 2.6 | 6.1 | 0.00 | 0.00 | 0.00 | 77 | 1010.3 |
| 20260506072522 | 63 | 260 | 1.7 | 5.2 | 0.00 | 0.00 | 0.00 | 76 | 1010.2 |
| 20260506071547 | 63 | 265 | 1.7 | 4.3 | 0.00 | 0.00 | 0.00 | 75 | 1010.1 |
| 20260506070525 | 63 | 228 | 1.7 | 7.0 | 0.00 | 0.00 | 0.00 | 74 | 1010.1 |
| 20260506061517 | 65 | 139 | 2.6 | 7.8 | 0.00 | 0.00 | 0.00 | 71 | 1009.8 |
| 20260506060539 | 65 | 206 | 2.6 | 5.2 | 0.00 | 0.00 | 0.00 | 70 | 1009.7 |
| 20260506050519 | 64 | 181 | 1.7 | 6.1 | 0.00 | 0.00 | 0.00 | 68 | 1010.2 |
| 20260506044521 | 64 | 158 | 1.7 | 6.1 | 0.00 | 0.00 | 0.00 | 67 | 1010.3 |
| 20260506043524 | 64 | 287 | 1.7 | 4.3 | 0.00 | 0.00 | 0.00 | 67 | 1010.3 |
| 20260506042538 | 64 | 284 | 1.7 | 7.0 | 0.00 | 0.00 | 0.00 | 67 | 1010.3 |
| 20260506041539 | 64 | 275 | 1.7 | 5.2 | 0.00 | 0.00 | 0.00 | 67 | 1010.3 |